Hourly Data Report for January 16, 2022

IQALUIT CLIMATE
NUNAVUT
Current Station Operator: ECCC - MSC

63°44'50.000" N
68°32'40.000" W
33.50 m
2402592
71321
XFB

Download Data

Hourly Data (January 2022)
Hourly Data Report for January 16, 2022
TIME
LST
Temp Definition
°C
Dew Point Definition
°C
Rel Hum Definition
%
Precip. Amount Definition
mm

Wind Dir Definition
10's deg

Wind Spd Definition
km/h
Visibility Definition
km
Stn Press Definition
kPa
Hmdx Definition


Wind Chill Definition


Weather Definition


00:00 -33.0 -36.6 70 0.0 2 3   100.53   -37 LegendNANA
01:00 -32.9 -37.0 67 0.2   0   100.59     LegendNANA
02:00 -34.3 -38.5 66 0.4 19 2   100.57   -37 LegendNANA
03:00 -33.3 -37.2 68 0.1 36 3   100.44   -37 LegendNANA
04:00 -32.9 -36.5 70 0.2 1 1   100.39   -34 LegendNANA
05:00 -32.9 -36.4 71 0.2 5 1   100.32   -34 LegendNANA
06:00 -33.1 -36.7 70 0.2 35 1   100.25   -34 LegendNANA
07:00 -34.3 -38.2 68 0.0 1 3   100.20   -38 LegendNANA
08:00 -34.0 -37.8 69 0.0   0   100.13     LegendNANA
09:00 -33.8 -37.4 70 0.0 28 2   100.10   -36 LegendNANA
10:00 -33.2 -36.9 69 0.0 32 1   100.03   -34 LegendNANA
11:00 -33.1 -37.0 69 0.3 0 1   99.98   -34 LegendNANA
12:00 -31.2 -35.1 68 0.3 25 4   99.92   -36 LegendNANA
13:00 -32.9 -36.9 67 0.2 0 1   99.86   -34 LegendNANA
14:00 -32.5 -36.3 69 0.0 36 6   99.81   -39 LegendNANA
15:00 -33.5 -37.4 68 0.2 1 6   99.80   -41 LegendNANA
16:00 -32.4 -35.8 72 0.0 35 4   99.78   -37 LegendNANA
17:00 -31.9 -35.1 74 0.4 0 1   99.78   -33 LegendNANA
18:00 -31.8 -35.1 72 0.0 36 1   99.79   -33 LegendNANA
19:00 -32.2 -35.6 72 0.3 34 6   99.81   -39 LegendNANA
20:00 -31.4 -34.9 72 0.0 1 6   99.80   -38 LegendNANA
21:00 -30.7 -34.3 71 0.0 0 1   99.80   -32 LegendNANA
22:00 -31.4 -35.0 70 0.0 2 3   99.74   -35 LegendNANA
23:00 -30.3 -33.7 72 0.0 27 1   99.76   -31 LegendNANA

Notes on Data Quality.

Legend

  • E = Estimated
  • M = Missing
  • NA = Not Available*
  • [empty] = Indicates an unobserved value
Date modified: